Presure
172 173 172 177 176 169 193 150 178 141 166 174 97 161 166 150 102 171 157 132 139 153 147 133 126 110 144
180 173 176 172 178 98 174 170 185 170 154 159 118 167 129 98 166 156 167 172 150 124 132 149 146 92 162
176 175 171 174 167 180 175 130 162 177 178 92 104 169 144 149 144 125 174 149 149 173 104 151 104 119 147
167 176 173 177 173 173 177 135 143 180 186 177 192 150 163 100 153 134 147 156 157 175 135 119 146 146 150
184 184 179 170 173 162 169 167 172 173 175 166 173 182 164 172 178 104 147 166 176 143 138 135 167 122 118
180 184 171 170 163 177 174 167 154 152 174 163 162 188 179 175 148 173 170 96 170 165 160 135 94 156 129
165 176 184 162 171 171 172 173 172 163 152 159 173 149 181 185 101 166 112 144 124 130 117 169 124 120 114
180 152 181 184 178 187 164 179 168 157 158 186 109 179 155 174 113 172 172 140 161 137 134 121 131 136 124
181 184 171 182 182 176 174 173 161 173 160 162 171 146 174 102 164 154 159 138 166 146 144 133 111 149 119
192 182 175 171 183 182 177 160 166 154 173 130 92 170 93 175 172 163 166 174 118 124 137 146 111 94 163
171 196 186 177 170 180 188 188 190 185 178 161 178 172 83 178 175 174 149 166 156 180 90 118 137 133 138
198 172 194 189 179 179 172 183 165 184 161 133 160 174 166 166 174 179 131 156 163 151 116 87 111 177 135
193 174 177 191 190 182 168 169 181 149 175 171 171 163 170 182 183 189 164 152 113 188 179 109 132 165 111
194 191 186 200 187 187 177 186 187 167 175 174 159 170 178 164 169 156 173 152 151 148 79 149 159 143 105
207 200 174 203 185 200 187 183 185 181 184 149 162 184 145 130 190 174 180 160 146 115 162 180 140 122 154
207 211 195 205 200 187 188 181 185 177 173 188 177 186 127 179 169 176 154 174 172 155 157 153 116 136 135
215 205 194 192 199 201 204 183 162 183 181 182 181 182 179 180 178 183 183 178 148 141 159 157 170 127 158
Wind_Speed
107 107 101 100 93 80 87 69 76 57 60 54 42 38 37 23 41 29 18 41 32 22 22 35 45 25 35
122 109 110 96 101 50 86 74 85 71 52 47 42 48 57 19 37 25 34 27 16 46 61 35 37 26 38
119 110 100 104 86 101 92 54 55 78 76 41 60 55 38 33 37 29 32 20 26 28 26 35 24 30 39
106 118 105 109 101 95 96 74 69 86 79 63 68 42 50 39 43 29 25 38 41 38 51 28 34 35 38
133 129 121 100 101 82 87 84 86 79 75 53 53 70 52 60 60 43 40 41 35 45 42 44 33 52 24
130 135 109 104 80 111 102 77 62 46 80 65 55 66 73 61 38 50 39 23 32 33 25 50 27 34 55
102 121 135 86 101 88 98 98 93 83 77 66 82 51 75 64 33 43 26 49 31 61 51 36 43 47 50
135 73 133 132 122 126 74 113 91 70 58 75 47 78 39 73 40 48 50 51 47 46 23 54 35 36 22
138 141 112 132 130 116 108 104 68 95 53 61 75 53 75 35 46 43 40 58 36 43 40 41 46 30 52
148 139 124 111 136 133 119 64 86 48 86 66 41 79 33 81 77 58 55 72 50 61 53 26 24 33 35
112 150 146 123 102 130 136 131 128 121 111 88 103 93 36 90 81 70 58 63 52 66 34 28 40 63 32
150 115 154 146 133 126 105 130 98 126 78 89 74 97 89 66 69 78 40 42 46 43 32 27 42 57 35
154 127 121 152 150 141 89 94 125 79 101 93 100 69 70 96 97 98 59 50 44 79 74 39 66 38 29
155 158 140 162 148 146 126 145 143 110 111 106 104 99 101 62 67 78 71 54 61 46 21 50 55 44 36
163 161 117 160 138 158 139 136 139 132 132 78 103 118 87 67 107 63 83 70 59 56 50 83 62 49 60
158 162 156 165 161 144 145 128 138 110 106 135 106 129 83 104 80 85 55 86 87 73 77 56 38 65 59
161 160 152 147 161 162 163 126 110 127 119 119 115 114 97 111 100 107 109 100 75 58 61 69 65 65 34
Wind_Direction
239 240 241 242 245 247 243 245 249 248 251 254 262 254 260 241 280 283 291 291 289 310 312 301 309 326 337
233 238 239 241 243 238 248 248 249 250 242 246 253 258 247 249 275 264 290 306 282 285 292 305 315 331 341
236 237 239 239 245 243 246 225 242 251 250 245 257 258 228 236 273 263 272 246 276 300 272 303 306 321 330
240 237 239 238 242 244 246 244 246 251 248 240 250 227 254 269 263 250 235 270 281 302 282 285 308 317 323
230 234 236 239 242 234 245 243 247 248 250 244 241 255 252 263 270 276 252 282 292 286 273 286 305 302 314
231 233 241 240 242 241 245 245 225 228 250 251 250 251 264 262 226 267 263 246 284 289 276 277 284 312 296
238 235 234 239 241 240 244 246 247 238 248 237 254 219 260 258 249 247 229 249 268 267 273 292 282 292 303
230 230 234 236 240 239 241 243 247 237 241 245 221 254 231 261 250 263 271 235 268 265 273 278 276 302 293
228 230 238 235 238 242 245 245 237 249 239 247 253 214 256 237 245 217 240 244 262 252 243 265 283 267 294
224 228 234 238 237 240 241 236 239 223 251 219 233 253 242 256 258 248 257 271 244 272 259 253 281 290 308
232 225 228 235 241 239 239 241 244 244 245 240 249 251 236 256 256 258 260 263 258 273 254 253 245 270 302
223 233 228 230 235 238 234 242 230 244 234 220 236 252 252 248 254 260 238 218 245 233 254 271 272 285 278
224 233 232 229 231 235 239 241 243 211 247 245 248 240 247 255 257 260 255 218 259 272 276 267 262 267 263
222 224 230 228 231 232 238 238 240 230 245 246 240 240 249 241 242 251 254 220 249 230 241 242 256 255 273
219 223 234 229 232 231 232 237 238 240 241 209 242 248 246 245 252 244 257 244 238 242 248 273 268 252 265
219 221 225 227 230 233 234 234 235 238 237 238 243 244 237 246 243 254 214 252 261 239 265 224 261 272 259
220 221 225 228 229 232 233 237 221 235 239 240 241 245 244 248 250 253 254 250 225 245 237 262 261 269 246